Regional Weather Roundup
Issued by NWS Albany, NY

Current Version | Previous Version | Graphics & Text | Print | Product List | Glossary Off
Versions: 1 2 3 4 5 6 7 8 9 10 11 12 13 14 15 16 17 18 19 20 21 22 23 24 25 26 27 28 29 30 31 32 33 34 35 36 37 38 39 40 41 42 43 44 45 46 47 48 49 50

000
ASUS41 KALY 030810
RWRALY

NEW YORK STATE HOURLY WEATHER ROUNDUP
NATIONAL WEATHER SERVICE ALBANY NY
400 AM EDT WED SEP 03 2014

NOTE: "FAIR" INDICATES FEW OR NO CLOUDS BELOW 12,000 FEET WITH NO
SIGNIFICANT WEATHER AND/OR NO OBSTRUCTIONS TO VISIBILITY.

NYZ032-033-038>043-046>054-057>066-NYZ062>081-030900-
EAST


CITY           SKY/WX    TMP DP  RH WIND       PRES   REMARKS
ALBANY         MOCLDY    67  61  81 W7        29.88R
GLENS FALLS    CLEAR     60  59  96 W6        29.85R
POUGHKEEPSIE   PTCLDY    72  61  68 CALM      29.86R
NEWBURGH       CLEAR     68  63  83 W12       29.89R
MONTGOMERY     PTCLDY    66  63  90 SW3       29.90R
WHITE PLAINS   CLEAR     71  63  75 NW15      29.85S
ISLIP          CLEAR     75  64  68 NW12G21   29.83R
NEW YORK CITY  PTCLDY    75  64  68 NW10G18   29.86R
CENTRAL PARK   CLEAR     75  61  61 VRB7      29.90R
$$

NYZ005>009-017-018-044>046-055-056-030900-
CENTRAL


CITY           SKY/WX    TMP DP  RH WIND       PRES   REMARKS
FULTON         CLOUDY    64  63  96 W6        29.92R FOG
SYRACUSE       MOCLDY    67  64  90 W7        29.92R
ROME           MOCLDY    64  63  96 W6        29.93R
ELMIRA         FOG       61  61 100 CALM      29.97R VSB 1/4
BINGHAMTON     CLOUDY    61  61 100 NW6       29.96R FOG
MONTICELLO     MOCLDY    63  63 100 W9        29.94R
$$

NYZ026>034-041>043-030900-
NORTH


CITY           SKY/WX    TMP DP  RH WIND       PRES   REMARKS
WATERTOWN      CLEAR     66  59  78 W6        29.89R
FORT DRUM      NOT AVBL
MASSENA        CLOUDY    64  63  96 SW10      29.84R
SARANAC LAKE   CLOUDY    60  59  96 SW7       29.87R
PLATTSBURGH    CLEAR     63  60  90 VRB3      29.80R
$$

NYZ001>004-010>016-019>021-030900-
WEST


CITY           SKY/WX    TMP DP  RH WIND       PRES   REMARKS
NIAGARA FALLS  FOG       60  59  96 W3        29.95R VSB 1/4
BUFFALO        CLEAR     63  60  90 W5        29.96R
DUNKIRK        CLEAR     63  61  93 SW5       29.98R
JAMESTOWN      PTCLDY    55  55 100 SW8       30.02R
WELLSVILLE     CLOUDY    62  59  90 W6        30.03R
ROCHESTER      PTCLDY    64  62  93 W6        29.94R
PENN YAN       CLEAR     64  62  93 W3        29.96R
$$

             KEY
       WCI = WIND CHILL INDEX
       VSB = VISIBILITY
       HX  = HEAT INDEX
$$



USA.gov is the U.S. government's official web portal to all federal, state and local government web resources and services.